Tucson, Arizona, United States (85701)
Lat: 32.22N, Lon: 110.93W
Wx Zone: AZZ504
Local Info
Past Weather Observations for Tuesday, September 16, 2014

NOTE: This archive is for the closest National Weather Service station to Tucson. Information may differ from the station used for current weather conditions.

Click here for Long-term Archive

Time Weather Temperature Dewpoint Humidity Pressure Winds Precip Visibility
23:58
Clear
73°F / 23°C 68°F / 20°C 83% 29.92 in
(1013 mb)
S 4.6 mph
(S 7 kph)
0.00 in
(0.00 mm)
10SM
22:58
Partly Cloudy
75°F / 24°C 66°F / 19°C 74% 29.92 in
(1013 mb)
ENE 10.4 mph
(ENE 17 kph)
0.00 in
(0.00 mm)
10SM
21:59
Partly Cloudy
75°F / 24°C 68°F / 20°C 78% 29.95 in
(1014 mb)
ENE 9.2 mph
(ENE 15 kph)
- 10SM
21:58
Partly Cloudy
Light Rain
75°F / 24°C 68°F / 20°C 78% 29.95 in
(1014 mb)
ENE 6.9 mph
(ENE 11 kph)
0.02 in
(0.51 mm)
10SM
21:36
Mostly Cloudy
Light Rain
75°F / 24°C 68°F / 20°C 78% 29.95 in
(1014 mb)
ENE 10.4 mph
(ENE 17 kph)
- 9SM
21:26
Mostly Cloudy
Light Rain
75°F / 24°C 70°F / 21°C 83% 29.95 in
(1014 mb)
NE 6.9 mph
(NE 11 kph)
- 5SM
21:21
Partly Cloudy
Light Rain
77°F / 25°C 68°F / 20°C 74% 29.95 in
(1014 mb)
ENE 6.9 mph
(ENE 11 kph)
- 7SM
21:11
Partly Cloudy
Drizzle
77°F / 25°C 66°F / 19°C 69% 29.95 in
(1014 mb)
ENE 3.5 mph
(ENE 6 kph)
- 7SM
21:01
Partly Cloudy
Light Rain
75°F / 24°C 68°F / 20°C 78% 29.95 in
(1014 mb)
ESE 6.9 mph
(ESE 11 kph)
- 10SM
20:58
Partly Cloudy
75°F / 24°C 68°F / 20°C 78% 29.95 in
(1014 mb)
E 5.8 mph
(E 9 kph)
0.00 in
(0.00 mm)
10SM
20:56
Partly Cloudy
77°F / 25°C 68°F / 20°C 74% 29.95 in
(1014 mb)
E 6.9 mph
(E 11 kph)
- 10SM
20:42
Partly Cloudy
Drizzle
77°F / 25°C 66°F / 19°C 69% 29.95 in
(1014 mb)
ESE 8.1 mph
(ESE 13 kph)
- 10SM
19:58
Partly Cloudy
79°F / 26°C 66°F / 19°C 65% 29.92 in
(1013 mb)
ENE 10.4 mph
(ENE 17 kph)
0.00 in
(0.00 mm)
10SM
18:58
Clear
79°F / 26°C 66°F / 19°C 65% 29.92 in
(1013 mb)
ENE 10.4 mph
(ENE 17 kph)
0.00 in
(0.00 mm)
10SM
17:58
Clear
79°F / 26°C 68°F / 20°C 70% 29.89 in
(1012 mb)
ENE 10.4 mph
(ENE 17 kph)
0.00 in
(0.00 mm)
10SM
16:58
Clear
79°F / 26°C 66°F / 19°C 65% 29.92 in
(1013 mb)
ENE 15 mph
(ENE 24 kph)
0.00 in
(0.00 mm)
10SM
16:35
Partly Cloudy
79°F / 26°C 66°F / 19°C 65% 29.92 in
(1013 mb)
ENE 11.5 mph
(ENE 19 kph)
- 10SM
16:33
Partly Cloudy
Drizzle
79°F / 26°C 66°F / 19°C 65% 29.92 in
(1013 mb)
ENE 15 mph
(ENE 24 kph)
- 10SM
15:58
Clear
79°F / 26°C 68°F / 20°C 70% 29.92 in
(1013 mb)
ENE 11.5 mph
(ENE 19 kph)
0.00 in
(0.00 mm)
10SM
15:18
Clear
81°F / 27°C 68°F / 20°C 66% 29.95 in
(1014 mb)
ENE 12.7 mph
(ENE 20 kph)
- 10SM
15:08
Partly Cloudy
Drizzle
81°F / 27°C 66°F / 19°C 62% 29.95 in
(1014 mb)
E 13.8 mph
(E 22 kph)
- 10SM
14:58
Partly Cloudy
81°F / 27°C 66°F / 19°C 62% 29.95 in
(1014 mb)
ENE 10.4 mph
(ENE 17 kph)
0.00 in
(0.00 mm)
10SM
14:51
Partly Cloudy
81°F / 27°C 66°F / 19°C 62% 29.95 in
(1014 mb)
ENE 12.7 mph
(ENE 20 kph)
- 10SM
14:44
Partly Cloudy
Drizzle
81°F / 27°C 66°F / 19°C 62% 29.95 in
(1014 mb)
ENE 9.2 mph
(ENE 15 kph)
- 10SM
13:55
Overcast
81°F / 27°C 64°F / 18°C 58% 29.95 in
(1014 mb)
NE 10.4 mph
(NE 17 kph)
- 10SM
12:55
Overcast
79°F / 26°C 66°F / 19°C 65% 29.98 in
(1015 mb)
NE 5.8 mph
(NE 9 kph)
- 10SM
11:58
Clear
79°F / 26°C 64°F / 18°C 61% 30.01 in
(1016 mb)
SE 4.6 mph
(SE 7 kph)
0.00 in
(0.00 mm)
10SM
11:42
Clear
79°F / 26°C 64°F / 18°C 61% 30.01 in
(1016 mb)
SE 6.9 mph
(SE 11 kph)
- 10SM
11:35
Partly Cloudy
Drizzle
79°F / 26°C 64°F / 18°C 61% 30.01 in
(1016 mb)
E 10.4 mph
(E 17 kph)
- 10SM
10:58
Overcast
77°F / 25°C 66°F / 19°C 69% 30.04 in
(1017 mb)
E 5.8 mph
(E 9 kph)
0.00 in
(0.00 mm)
10SM
10:40
Clear
77°F / 25°C 66°F / 19°C 69% 30.04 in
(1017 mb)
ESE 6.9 mph
(ESE 11 kph)
- 10SM
10:31
Partly Cloudy
Drizzle
75°F / 24°C 66°F / 19°C 74% 30.04 in
(1017 mb)
ESE 8.1 mph
(ESE 13 kph)
- 10SM
10:27
Partly Cloudy
75°F / 24°C 66°F / 19°C 74% 30.04 in
(1017 mb)
E 9.2 mph
(E 15 kph)
- 10SM
10:11
Partly Cloudy
Drizzle
75°F / 24°C 66°F / 19°C 74% 30.04 in
(1017 mb)
ENE 4.6 mph
(ENE 7 kph)
- 10SM
10:09
Partly Cloudy
75°F / 24°C 66°F / 19°C 74% 30.04 in
(1017 mb)
ENE 5.8 mph
(ENE 9 kph)
- 10SM
10:03
Overcast
Drizzle
75°F / 24°C 66°F / 19°C 74% 30.04 in
(1017 mb)
E 5.8 mph
(E 9 kph)
- 10SM
10:02
Clear
75°F / 24°C 66°F / 19°C 74% 30.04 in
(1017 mb)
E 5.8 mph
(E 9 kph)
- 10SM
09:58
Partly Cloudy
Drizzle
75°F / 24°C 64°F / 18°C 69% 30.04 in
(1017 mb)
ENE 4.6 mph
(ENE 7 kph)
0.00 in
(0.00 mm)
10SM
09:57
Partly Cloudy
Drizzle
75°F / 24°C 64°F / 18°C 69% 30.04 in
(1017 mb)
ENE 5.8 mph
(ENE 9 kph)
- 10SM
09:40
Overcast
75°F / 24°C 66°F / 19°C 74% 30.04 in
(1017 mb)
ESE 4.6 mph
(ESE 7 kph)
- 10SM
09:33
Partly Cloudy
Drizzle
75°F / 24°C 66°F / 19°C 74% 30.04 in
(1017 mb)
ESE 5.8 mph
(ESE 9 kph)
- 10SM
08:58
Overcast
73°F / 23°C 66°F / 19°C 78% 30.04 in
(1017 mb)
E 6.9 mph
(E 11 kph)
0.00 in
(0.00 mm)
10SM
07:58
Clear
72°F / 22°C 66°F / 19°C 83% 30.04 in
(1017 mb)
Calm 0.02 in
(0.51 mm)
10SM
06:58
Clear
72°F / 22°C 66°F / 19°C 83% 30.04 in
(1017 mb)
ESE 5.8 mph
(ESE 9 kph)
0.02 in
(0.51 mm)
10SM
05:58
Clear
72°F / 22°C 64°F / 18°C 78% 30.04 in
(1017 mb)
SE 18.4 mph
(SE 30 kph)
0.01 in
(0.25 mm)
10SM
04:58
Clear
75°F / 24°C 63°F / 17°C 65% 30.01 in
(1016 mb)
SE 18.4 mph
(SE 30 kph)
0.00 in
(0.00 mm)
10SM
03:58
Clear
75°F / 24°C 63°F / 17°C 65% 30.01 in
(1016 mb)
SE 12.7 mph
(SE 20 kph)
0.00 in
(0.00 mm)
10SM
02:58
Clear
75°F / 24°C 63°F / 17°C 65% 30.04 in
(1017 mb)
SE 10.4 mph
(SE 17 kph)
0.00 in
(0.00 mm)
10SM
01:58
Clear
79°F / 26°C 63°F / 17°C 58% 30.04 in
(1017 mb)
SE 11.5 mph
(SE 19 kph)
- 10SM
00:58
Partly Cloudy
79°F / 26°C 64°F / 18°C 61% 30.04 in
(1017 mb)
SE 15 mph
(SE 24 kph)
0.11 in
(2.79 mm)
10SM
00:16
Mostly Cloudy
77°F / 25°C 68°F / 20°C 74% 30.01 in
(1016 mb)
SE 8.1 mph
(SE 13 kph)
- 10SM
00:15
Mostly Cloudy
Drizzle
77°F / 25°C 68°F / 20°C 74% 30.01 in
(1016 mb)
SE 8.1 mph
(SE 13 kph)
- 8SM
00:10
Mostly Cloudy
Light Rain
77°F / 25°C 68°F / 20°C 74% 30.01 in
(1016 mb)
S 8.1 mph
(S 13 kph)
- 5SM
00:05
Mostly Cloudy
Heavy Rain
77°F / 25°C 68°F / 20°C 74% 30.01 in
(1016 mb)
SSE 16.1 mph
(SSE 26 kph)
- 5SM
00:03
Mostly Cloudy
Heavy Rain
77°F / 25°C 68°F / 20°C 74% 30.01 in
(1016 mb)
SE 13.8 mph
(SE 22 kph)
- 6SM
Time Weather Temperature Dewpoint Humidity Pressure Winds Precip Visibility


Weather for websites

WeatherForYou.com, LLC is not responsible for any damages or problems caused by this service. Current weather conditions are obtained from the closest station including government and personal stations which may have varying degrees of accuracy. Weather forecasts are derived from the NOAA NDFD. Like all things, this site belongs to Jesus Christ... He just trusts me to maintain it. If you have any questions or comments email webmaster@weatherforyou.com

Copyright © 2014, WeatherForYou.com LLC. All rights reserved.